Location: Coffee Creek Observatory
(38.8077°N, 94.7179°W)
Time: 12:05:51
(UTC-06:00)

Amateur Radio Satellites - All Passes

Search period start: 01 March 2017 11:35
Search period end: 02 March 2017 11:35
Location: Coffee Creek Observatory, 38.8077°N, 94.7179°W

Satellite Date Start Highest point End Downlink Frequencies (MHz)
Time Altitude Azimuth
QB50P2 01 Mar 11:36:57 11:41:03 49° 261° (W) 11:45:12 145.880/145.840
BUGSAT 1 01 Mar 11:37:20 11:41:08 39° 72° (ENE) 11:45:00 437.445
Tancredo 1 01 Mar 11:45:07 11:47:25 18° 23° (NNE) 11:49:43 437.200
ESTCUBE 1 01 Mar 11:50:03 11:54:32 82° 101° (E) 11:59:01 437.505/2401.250
VELOX 1 01 Mar 11:55:54 11:59:44 28° 96° (E) 12:03:35 145.980
AIST 2D 01 Mar 11:57:51 11:59:52 14° 267° (W) 12:01:52 435.315
Oscar 19 01 Mar 12:00:10 12:04:13 24° 66° (ENE) 12:08:16 437.125/150
LO-87 01 Mar 12:03:45 12:06:43 24° 289° (WNW) 12:09:42 145.935 - 145.965
AO-85 01 Mar 12:07:13 12:11:04 54° 57° (ENE) 12:14:58 145.980
50 SAT 01 Mar 12:12:35 12:15:33 26° 97° (E) 12:18:30 437.505
YUBILEINY 01 Mar 12:16:37 12:22:34 20° 295° (WNW) 12:28:35 435.215
DUCHIFAT 1 01 Mar 12:36:15 12:38:33 14° 268° (W) 12:40:51 145.980
SPROUT 01 Mar 13:05:08 13:09:21 54° 286° (WNW) 13:13:32 437.525
ISS 01 Mar 13:06:45 13:10:03 76° 39° (NE) 13:13:20 437.550
DX 1 01 Mar 13:07:58 13:12:20 79° 102° (ESE) 13:16:42 434.975-435.025
UKube-1 01 Mar 13:10:45 13:15:01 59° 101° (ESE) 13:19:16 .
BUGSAT 1 01 Mar 13:14:20 13:16:41 15° 268° (W) 13:19:02 437.445
Gurwin Techsat 1B 01 Mar 13:20:38 13:25:56 77° 75° (ENE) 13:31:16 435.225
Tancredo 1 01 Mar 13:20:46 13:23:59 71° 221° (SW) 13:27:10 437.200
VELOX 1 01 Mar 13:32:30 13:36:03 24° 292° (WNW) 13:39:38 145.980
AO-7 01 Mar 13:33:03 13:39:47 28° 57° (ENE) 13:46:29 .
Oscar 19 01 Mar 13:38:29 13:43:17 39° 262° (W) 13:48:05 437.125/150
50 SAT 01 Mar 13:46:17 13:48:26 16° 292° (WNW) 13:50:35 437.505
BEESAT 3 01 Mar 13:46:47 13:50:35 39° 54° (NE) 13:54:21 437.485
AO-85 01 Mar 13:49:57 13:50:58 11° 251° (WSW) 13:52:00 145.980
ITAMSAT 1 01 Mar 14:22:01 14:27:03 52° 71° (ENE) 14:32:07 435.822/435.867
PCSat 01 Mar 14:33:48 14:38:31 31° 109° (ESE) 14:43:15 145.827
BEESAT 2 01 Mar 14:35:20 14:39:19 54° 56° (NE) 14:43:16 435.950
RS-15 01 Mar 14:41:25 14:47:59 17° 96° (E) 14:54:39 29.354- 29.394
MOZHAYETS 4 01 Mar 14:47:38 14:50:21 15° 92° (E) 14:53:04
UKube-1 01 Mar 14:48:47 14:50:32 12° 297° (WNW) 14:52:16 .
ITUPSAT 1 01 Mar 15:03:38 15:08:25 64° 102° (ESE) 15:13:08 437.325
Gurwin Techsat 1B 01 Mar 15:04:30 15:06:25 12° 270° (W) 15:08:20 435.225
BEESAT 01 Mar 15:07:00 15:11:47 71° 102° (ESE) 15:16:31 436.000
AO-7 01 Mar 15:23:35 15:31:53 67° 255° (WSW) 15:40:13 .
BEESAT 3 01 Mar 15:25:19 15:27:51 16° 250° (WSW) 15:30:23 437.485
NO-84 01 Mar 15:27:28 15:30:30 74° 132° (SE) 15:33:48 435.350 FM
CUBESAT XI-V 01 Mar 15:59:55 16:02:21 14° 91° (E) 16:04:47 437.345
ITAMSAT 1 01 Mar 16:03:21 16:06:47 18° 267° (W) 16:10:15 435.822/435.867
BEESAT 2 01 Mar 16:15:00 16:16:36 12° 252° (WSW) 16:18:12 435.950
PCSat 01 Mar 16:16:53 16:21:49 35° 306° (NW) 16:26:46 145.827
KKS-1 01 Mar 16:19:29 16:23:37 36° 98° (E) 16:27:44 437.445
MOZHAYETS 4 01 Mar 16:23:20 16:27:45 47° 288° (WNW) 16:32:07
XW-2B 01 Mar 16:31:19 16:31:46 10° 64° (ENE) 16:32:13 145.730 - 145.750
XW-2C 01 Mar 16:38:41 16:40:31 13° 66° (ENE) 16:42:22 145.795 - 145.815
STARS 01 Mar 16:40:20 16:44:06 26° 96° (E) 16:47:50 437.465
ITUPSAT 1 01 Mar 16:43:16 16:45:41 14° 298° (WNW) 16:48:04 437.325
RS-15 01 Mar 16:46:25 16:58:15 77° 116° (ESE) 17:10:34 29.354- 29.394
BEESAT 01 Mar 16:46:58 16:48:56 12° 298° (WNW) 16:50:54 436.000
LilacSat-2 01 Mar 16:59:16 17:02:25 24° 70° (ENE) 17:05:34 437.200
M-CUBED/EXP-1 PRIME 01 Mar 17:06:37 17:09:28 18° 101° (E) 17:12:26 437.505
NO-84 01 Mar 17:06:39 17:08:35 15° 334° (NNW) 17:10:36 435.350 FM
DOVE 4 01 Mar 17:19:51 17:23:48 47° 73° (ENE) 17:27:52 437.250
AO-7 01 Mar 17:25:13 17:26:01 10° 273° (W) 17:26:50 .
CUBESAT XI-V 01 Mar 17:35:33 17:40:00 51° 287° (WNW) 17:44:26 437.345
KAITUO 1B 01 Mar 17:35:56 17:39:38 52° 75° (ENE) 17:43:21 145.475/437.950
CUTE-I 01 Mar 17:43:40 17:48:59 77° 75° (ENE) 17:54:22 437.470
XW-2F 01 Mar 17:48:43 17:52:33 86° 253° (WSW) 17:56:26 145.980 - 146.000
XW-2D 01 Mar 17:56:27 18:00:16 63° 260° (W) 18:04:06 145.860 - 145.880
KKS-1 01 Mar 17:56:38 17:59:56 20° 293° (WNW) 18:03:12 437.445
XW-2B 01 Mar 18:01:40 18:05:27 56° 260° (W) 18:09:15 145.730 - 145.750
XW-2A 01 Mar 18:02:17 18:04:35 17° 69° (ENE) 18:06:54 145.665 - 145.685
NUDT-PHONESAT 01 Mar 18:04:50 18:08:34 62° 259° (W) 18:12:20 437.300
XW-2C 01 Mar 18:10:41 18:14:20 42° 262° (W) 18:18:01 145.795 - 145.815
STARS 01 Mar 18:16:38 18:20:20 26° 291° (WNW) 18:24:01 437.465
SEEDS 01 Mar 18:21:06 18:23:39 16° 66° (ENE) 18:26:13 437.485
STRAND 1 01 Mar 18:22:34 18:24:07 11° 90° (E) 18:25:40 437.568
LilacSat-2 01 Mar 18:33:34 18:36:37 22° 265° (W) 18:39:40 437.200
HO-68 01 Mar 18:35:22 18:42:19 56° 69° (ENE) 18:49:17 435.675
M-CUBED/EXP-1 PRIME 01 Mar 18:40:19 18:43:55 35° 293° (WNW) 18:47:45 437.505
CUBEBUG 2 01 Mar 18:41:21 18:44:35 20° 66° (ENE) 18:47:54 437.445
DOVE 4 01 Mar 19:00:10 19:01:50 12° 269° (W) 19:03:30 437.250
RS-15 01 Mar 19:01:07 19:11:59 37° 321° (NW) 19:23:12 29.354- 29.394
CUTE 1.7 + AOD 2 01 Mar 19:06:48 19:11:05 82° 78° (ENE) 19:15:22 437.475
UWE-3 01 Mar 19:07:56 19:11:30 23° 68° (ENE) 19:15:10 435.000/436.395/437.385
ZACube-1 01 Mar 19:18:22 19:21:25 18° 66° (ENE) 19:24:30 437.345
CUTE-I 01 Mar 19:27:35 19:29:35 12° 270° (W) 19:31:36 437.470
AAUSAT CUBESAT 2 01 Mar 19:29:28 19:33:25 44° 73° (ENE) 19:37:22 437.432
XW-2A 01 Mar 19:34:26 19:37:11 23° 264° (W) 19:39:59 145.665 - 145.685
SEEDS 01 Mar 19:55:00 19:59:00 41° 262° (W) 20:03:00 437.485
STRAND 1 01 Mar 19:58:40 20:03:50 77° 285° (WNW) 20:08:56 437.568
AO-73 01 Mar 20:02:22 20:06:40 48° 73° (ENE) 20:11:04 145.935
Oscar 11 01 Mar 20:03:03 20:07:09 41° 72° (ENE) 20:11:15 .
CUBEBUG 2 01 Mar 20:16:41 20:20:52 39° 263° (W) 20:25:13 437.445
DELFI C3 01 Mar 20:19:20 20:22:01 18° 68° (ENE) 20:24:43 145.870
HO-68 01 Mar 20:24:31 20:30:20 26° 265° (W) 20:36:10 435.675
YUBILEINY 01 Mar 20:28:08 20:36:09 39° 74° (ENE) 20:44:06 435.215
SO-50 01 Mar 20:37:32 20:41:53 39° 115° (ESE) 20:46:12 436.795
UWE-3 01 Mar 20:43:44 20:47:45 32° 264° (W) 20:51:53 435.000/436.395/437.385
ZACube-1 01 Mar 20:53:04 20:57:19 42° 262° (W) 21:01:40 437.345
AAUSAT CUBESAT 2 01 Mar 21:07:03 21:09:05 13° 268° (W) 21:11:08 437.432
JUGNU 01 Mar 21:07:10 21:08:46 11° 181° (S) 21:10:21 437.505
O/OREOS (USA 219) 01 Mar 21:10:14 21:13:58 26° 103° (ESE) 21:17:43 437.305
RS-15 01 Mar 21:21:36 21:29:47 19° 355° (N) 21:37:58 29.354- 29.394
PRISM 01 Mar 21:21:44 21:25:27 33° 98° (E) 21:29:09 437.425
TIGRISAT 01 Mar 21:27:39 21:30:39 17° 92° (E) 21:33:37 435.000
UNISAT 6 01 Mar 21:28:42 21:31:59 19° 93° (E) 21:35:12 437.425
AO-73 01 Mar 21:40:34 21:43:09 15° 269° (W) 21:45:45 145.935
Oscar 11 01 Mar 21:40:46 21:43:27 16° 268° (W) 21:46:07 .
DELFI C3 01 Mar 21:53:04 21:56:35 31° 263° (W) 22:00:07 145.870
NO-84 01 Mar 22:02:03 22:05:40 33° 37° (NE) 22:09:32 435.350 FM
SRMSAT 01 Mar 22:17:01 22:17:46 10° 173° (S) 22:18:32 437.500
SO-50 01 Mar 22:18:36 22:22:27 25° 312° (NW) 22:26:15 436.795
YUBILEINY 01 Mar 22:24:54 22:32:56 43° 273° (W) 22:40:56 435.215
FO-29 01 Mar 22:34:31 22:41:39 48° 97° (E) 22:47:58 435.910
LO-87 01 Mar 22:37:48 22:41:19 78° 258° (WSW) 22:44:53 145.935 - 145.965
ESTCUBE 1 01 Mar 22:47:54 22:52:21 63° 75° (ENE) 22:56:48 437.505/2401.250
O/OREOS (USA 219) 01 Mar 22:49:28 22:53:16 27° 299° (WNW) 22:57:07 437.305
VELOX 1 01 Mar 22:52:15 22:55:37 22° 68° (ENE) 22:59:01 145.980
PRISM 01 Mar 22:57:40 23:00:29 18° 293° (WNW) 23:03:18 437.425
EO-79 01 Mar 23:01:56 23:04:21 15° 92° (E) 23:06:45 145.935-145.965
TIGRISAT 01 Mar 23:03:05 23:07:33 45° 288° (WNW) 23:11:55 435.000
UNISAT 6 01 Mar 23:04:27 23:08:50 40° 288° (WNW) 23:13:08 437.425
NANOSAT C BR1 01 Mar 23:15:05 23:18:09 19° 94° (E) 23:21:13 145.865
POLYITAN 1 01 Mar 23:20:11 23:23:42 24° 95° (E) 23:27:10 437.675
AIST 2D 01 Mar 23:22:38 23:26:02 43° 98° (E) 23:29:24 435.315
PCSat 01 Mar 23:22:50 23:27:00 22° 49° (NE) 23:31:09 145.827
QB50P2 01 Mar 23:23:14 23:26:56 28° 96° (E) 23:30:37 145.880/145.840
RS-15 01 Mar 23:37:58 23:48:18 29° 31° (NNE) 23:58:20 29.354- 29.394
NO-84 01 Mar 23:39:38 23:43:22 34° 231° (SW) 23:47:19 435.350 FM
SPROUT 01 Mar 23:56:40 00:00:55 87° 253° (WSW) 00:05:13 437.525
DX 1 02 Mar 00:01:56 00:06:09 56° 73° (ENE) 00:10:24 434.975-435.025
UKube-1 02 Mar 00:03:47 00:07:49 41° 72° (ENE) 00:11:52 .
SRMSAT 02 Mar 00:04:12 00:06:00 11° 183° (S) 00:07:47 437.500
50 SAT 02 Mar 00:17:36 00:20:59 48° 261° (W) 00:24:22 437.505
DUCHIFAT 1 02 Mar 00:19:06 00:23:23 84° 284° (WNW) 00:27:38 145.980
FO-29 02 Mar 00:19:55 00:26:17 32° 297° (WNW) 00:32:07 435.910
VELOX 1 02 Mar 00:28:01 00:31:53 31° 263° (W) 00:35:47 145.980
ESTCUBE 1 02 Mar 00:28:14 00:29:32 11° 269° (W) 00:30:50 437.505/2401.250
EO-79 02 Mar 00:36:14 00:40:18 43° 288° (WNW) 00:44:21 145.935-145.965
NANOSAT C BR1 02 Mar 00:50:05 00:53:55 33° 289° (WNW) 00:57:44 145.865
BUGSAT 1 02 Mar 00:55:01 00:59:17 84° 100° (E) 01:03:32 437.445
POLYITAN 1 02 Mar 00:55:48 00:59:25 27° 290° (WNW) 01:03:00 437.675
AIST 2D 02 Mar 00:58:04 00:58:50 11° 294° (WNW) 00:59:35 435.315
QB50P2 02 Mar 00:59:10 01:02:35 23° 292° (WNW) 01:05:58 145.880/145.840
PCSat 02 Mar 01:05:26 01:10:45 56° 247° (WSW) 01:16:01 145.827
Gurwin Techsat 1B 02 Mar 01:38:28 01:43:16 33° 97° (E) 01:48:02 435.225
DX 1 02 Mar 01:41:13 01:42:40 11° 269° (W) 01:44:07 434.975-435.025
UKube-1 02 Mar 01:41:26 01:44:01 16° 267° (W) 01:46:36 .
MOZHAYETS 4 02 Mar 01:48:54 01:51:16 14° 64° (ENE) 01:53:39
RS-15 02 Mar 01:50:40 02:03:04 81° 58° (ENE) 02:14:52 29.354- 29.394
Oscar 19 02 Mar 01:50:47 01:55:56 81° 102° (ESE) 02:01:04 437.125/150
ITUPSAT 1 02 Mar 02:08:48 02:13:33 64° 74° (ENE) 02:18:20 437.325
BEESAT 02 Mar 02:11:48 02:16:33 70° 75° (ENE) 02:21:21 436.000
AO-85 02 Mar 02:20:34 02:24:23 26° 114° (ESE) 02:27:59 145.980
ITAMSAT 1 02 Mar 02:36:59 02:40:48 20° 94° (E) 02:44:37 435.822/435.867
CUBESAT XI-V 02 Mar 03:02:41 03:04:49 13° 64° (ENE) 03:06:58 437.345
KKS-1 02 Mar 03:16:23 03:20:10 28° 69° (ENE) 03:23:58 437.445
Gurwin Techsat 1B 02 Mar 03:18:32 03:23:05 29° 293° (WNW) 03:27:37 435.225
MOZHAYETS 4 02 Mar 03:23:20 03:27:54 59° 260° (W) 03:32:30
AO-7 02 Mar 03:26:46 03:34:40 46° 101° (E) 03:42:31 .
Oscar 19 02 Mar 03:32:32 03:34:32 12° 300° (WNW) 03:36:32 437.125/150
STARS 02 Mar 03:36:04 03:39:19 21° 67° (ENE) 03:42:35 437.465
ITUPSAT 1 02 Mar 03:49:46 03:51:46 12° 269° (W) 03:53:47 437.325
M-CUBED/EXP-1 PRIME 02 Mar 03:52:55 03:54:43 14° 62° (ENE) 03:56:31 437.505
BEESAT 02 Mar 03:53:26 03:54:47 11° 270° (W) 03:56:09 436.000
AO-85 02 Mar 04:00:40 04:04:40 31° 307° (NW) 04:08:28 145.980
RS-15 02 Mar 04:04:50 04:14:06 27° 259° (W) 04:23:07 29.354- 29.394
ITAMSAT 1 02 Mar 04:15:28 04:20:28 46° 289° (WNW) 04:25:25 435.822/435.867
BEESAT 2 02 Mar 04:27:44 04:29:22 12° 108° (ESE) 04:31:00 435.950
CUBESAT XI-V 02 Mar 04:37:03 04:41:39 62° 259° (W) 04:46:16 437.345
KKS-1 02 Mar 04:53:06 04:56:41 24° 264° (W) 05:00:18 437.445
SO-50 02 Mar 05:10:10 05:13:56 25° 49° (NE) 05:17:40 436.795
STARS 02 Mar 05:11:29 05:15:25 33° 262° (W) 05:19:25 437.465
BEESAT 3 02 Mar 05:12:24 05:16:16 74° 302° (WNW) 05:20:14 437.485
AO-7 02 Mar 05:19:45 05:27:16 39° 298° (WNW) 05:34:43 .
DOVE 4 02 Mar 05:19:54 05:23:06 17° 93° (E) 05:26:23 437.250
XW-2F 02 Mar 05:24:56 05:25:38 10° 91° (E) 05:26:20 145.980 - 146.000
M-CUBED/EXP-1 PRIME 02 Mar 05:26:12 05:28:59 26° 258° (WSW) 05:31:48 437.505
XW-2D 02 Mar 05:31:41 05:33:47 14° 92° (E) 05:35:51 145.860 - 145.880
STRAND 1 02 Mar 05:36:33 05:39:36 16° 63° (ENE) 05:42:41 437.568
XW-2B 02 Mar 05:36:38 05:39:00 16° 93° (E) 05:41:21 145.730 - 145.750
NUDT-PHONESAT 02 Mar 05:38:18 05:40:07 13° 92° (E) 05:41:55 437.300
XW-2C 02 Mar 05:45:04 05:47:58 20° 95° (E) 05:50:50 145.795 - 145.815
ISS 02 Mar 05:45:36 05:48:47 47° 136° (SE) 05:51:59 437.550
Tancredo 1 02 Mar 05:57:03 06:00:17 68° 138° (SE) 06:03:30 437.200
CUTE-I 02 Mar 06:02:20 06:07:12 34° 97° (E) 06:12:00 437.470
BEESAT 2 02 Mar 06:02:48 06:06:38 51° 304° (NW) 06:10:33 435.950
LilacSat-2 02 Mar 06:07:13 06:10:51 40° 98° (E) 06:14:26 437.200
KAITUO 1B 02 Mar 06:42:17 06:46:04 87° 276° (W) 06:49:47 145.475/437.950
SO-50 02 Mar 06:50:22 06:54:25 34° 246° (WSW) 06:58:28 436.795
CUTE 1.7 + AOD 2 02 Mar 06:54:19 06:56:45 15° 92° (E) 06:59:11 437.475
DOVE 4 02 Mar 06:56:14 07:00:58 51° 286° (WNW) 07:05:55 437.250
XW-2F 02 Mar 06:56:24 07:00:02 46° 286° (WNW) 07:03:38 145.980 - 146.000
XW-2A 02 Mar 06:57:28 07:00:10 21° 95° (E) 07:02:49 145.665 - 145.685
XW-2D 02 Mar 07:04:37 07:08:05 34° 288° (WNW) 07:11:32 145.860 - 145.880
XW-2B 02 Mar 07:09:53 07:13:15 31° 288° (WNW) 07:16:37 145.730 - 145.750
NUDT-PHONESAT 02 Mar 07:10:44 07:14:12 36° 287° (WNW) 07:17:37 437.300
STRAND 1 02 Mar 07:13:10 07:18:15 62° 259° (W) 07:23:22 437.568
XW-2C 02 Mar 07:19:00 07:22:07 24° 290° (WNW) 07:25:11 145.795 - 145.815
O/OREOS (USA 219) 02 Mar 07:20:40 07:25:03 42° 65° (ENE) 07:29:24 437.305
ISS 02 Mar 07:22:43 07:25:25 22° 334° (NNW) 07:28:08 437.550
Tancredo 1 02 Mar 07:34:27 07:36:48 18° 336° (NNW) 07:39:11 437.200
SEEDS 02 Mar 07:39:59 07:43:45 32° 97° (E) 07:47:29 437.485
CUTE-I 02 Mar 07:42:30 07:47:06 30° 293° (WNW) 07:51:41 437.470
LilacSat-2 02 Mar 07:42:56 07:44:45 13° 294° (WNW) 07:46:32 437.200
HO-68 02 Mar 07:51:44 07:58:51 66° 103° (ESE) 08:05:56 435.675
AO-73 02 Mar 07:55:14 07:55:24 10° 89° (E) 07:55:32 145.935
CUBEBUG 2 02 Mar 08:08:23 08:13:01 49° 99° (E) 08:17:30 437.445
PRISM 02 Mar 08:10:17 08:13:18 20° 68° (ENE) 08:16:20 437.425
TIGRISAT 02 Mar 08:25:53 08:28:06 13° 63° (ENE) 08:30:19 435.000
UNISAT 6 02 Mar 08:26:56 08:29:30 15° 64° (ENE) 08:32:05 437.425
CUTE 1.7 + AOD 2 02 Mar 08:28:48 08:32:45 40° 287° (WNW) 08:36:41 437.475
XW-2A 02 Mar 08:30:17 08:32:48 19° 290° (WNW) 08:35:19 145.665 - 145.685
UWE-3 02 Mar 08:34:03 08:38:38 58° 100° (E) 08:43:06 435.000/436.395/437.385
ZACube-1 02 Mar 08:42:36 08:46:52 41° 98° (E) 08:51:02 437.345
FO-29 02 Mar 08:45:10 08:50:38 22° 59° (ENE) 08:56:17 435.910
AAUSAT CUBESAT 2 02 Mar 08:47:51 08:51:58 79° 283° (WNW) 08:56:03 437.432
O/OREOS (USA 219) 02 Mar 09:01:05 09:04:04 17° 260° (W) 09:07:03 437.305
SEEDS 02 Mar 09:16:16 09:19:11 19° 292° (WNW) 09:22:06 437.485
YUBILEINY 02 Mar 09:27:08 09:35:24 47° 88° (E) 09:43:38 435.215
Oscar 11 02 Mar 09:27:09 09:31:29 78° 282° (WNW) 09:35:46 .
AO-73 02 Mar 09:27:37 09:32:05 67° 285° (WNW) 09:36:26 145.935
DELFI C3 02 Mar 09:31:06 09:34:38 32° 97° (E) 09:38:11 145.870
HO-68 02 Mar 09:40:33 09:45:58 24° 300° (WNW) 09:51:23 435.675
PRISM 02 Mar 09:44:52 09:48:24 28° 263° (W) 09:51:58 437.425
CUBEBUG 2 02 Mar 09:46:10 09:49:10 17° 295° (WNW) 09:52:07 437.445
AIST 2D 02 Mar 09:57:09 09:59:02 14° 68° (ENE) 10:00:56 435.315
TIGRISAT 02 Mar 09:59:43 10:04:12 61° 259° (W) 10:08:49 435.000
UNISAT 6 02 Mar 10:01:15 10:05:41 54° 260° (W) 10:10:15 437.425
NANOSAT C BR1 02 Mar 10:07:08 10:09:01 13° 64° (ENE) 10:10:55 145.865
UWE-3 02 Mar 10:12:10 10:14:32 14° 296° (WNW) 10:16:52 435.000/436.395/437.385
POLYITAN 1 02 Mar 10:12:15 10:14:53 16° 66° (ENE) 10:17:32 437.675
QB50P2 02 Mar 10:15:06 10:18:04 19° 67° (ENE) 10:21:02 145.880/145.840
ZACube-1 02 Mar 10:19:45 10:22:47 18° 294° (WNW) 10:25:47 437.345
FO-29 02 Mar 10:27:23 10:34:41 79° 258° (WSW) 10:42:34 435.910
ISS 02 Mar 10:39:19 10:40:36 12° 14° (NNE) 10:41:54 437.550
ESTCUBE 1 02 Mar 10:43:06 10:45:33 14° 92° (E) 10:47:58 437.505/2401.250
Tancredo 1 02 Mar 10:50:01 10:51:34 13° 17° (NNE) 10:53:06 437.200
AO-85 02 Mar 10:53:21 10:55:39 15° 46° (NE) 10:57:59 145.980
DELFI C3 02 Mar 11:06:36 11:09:11 17° 292° (WNW) 11:11:44 145.870
DUCHIFAT 1 02 Mar 11:09:11 11:13:19 58° 74° (ENE) 11:17:29 145.980
EO-79 02 Mar 11:26:41 11:30:53 72° 259° (WSW) 11:35:09 145.935-145.965
AIST 2D 02 Mar 11:28:44 11:31:58 32° 263° (W) 11:35:12 435.315
Oscar 19 02 Mar 11:30:44 11:32:47 12° 61° (ENE) 11:34:50 437.125/150
